Regional Weather Roundup
Issued by NWS

Home | Current Version | Previous Version | Graphics & Text | Print | Product List | Glossary On
Versions: 1 2 3 4 5 6 7 8 9 10 11 12 13 14 15 16 17 18 19 20 21 22 23 24 25 26 27 28 29 30 31 32 33 34 35 36 37 38 39 40 41 42 43 44 45 46 47 48 49 50
819
ASUS45 KPSR 180410
RWRAZ

ARIZONA HOURLY REGIONAL WEATHER ROUNDUP
NATIONAL WEATHER SERVICE PHOENIX AZ
900 PM MST WED JAN 17 2018

NOTE: FAIR INDICATES FEW OR NO CLOUDS BELOW 12,000 FEET WITH NO
SIGNIFICANT WEATHER AND/OR OBSTRUCTIONS TO VISIBILITY.

AZZ001>003-036-180500-
NORTHWEST ARIZONA

CITY           SKY/WX    TMP DP  RH WIND       PRES   REMARKS
BULLHEAD CITY  PTCLDY    66  36  32 N15       30.17F
KINGMAN        PTCLDY    48  30  49 E7        30.27R
$$

AZZ004>008-015-016-018-180500-
NORTH CENTRAL ARIZONA

CITY           SKY/WX    TMP DP  RH WIND       PRES   REMARKS
GRAND CANYON   PTCLDY    25  19  78 CALM      30.37S
WILLIAMS       PTCLDY    34  19  55 SE5       30.33F WCI  30
PRESCOTT       CLEAR     40  25  55 S3        30.30R
FLAGSTAFF      CLEAR     28  17  63 CALM      30.35S
PAYSON         CLEAR     46  16  29 NE9       30.29S
PAGE           CLEAR     41  20  43 CALM      30.34S
$$

AZZ009>014-017-180500-
NORTHEAST ARIZONA

CITY           SKY/WX    TMP DP  RH WIND       PRES   REMARKS
WINSLOW        CLEAR     33  12  41 SW8       30.32S WCI  26
SAINT JOHNS    CLEAR     38  19  46 CALM      30.31R
WINDOW ROCK    CLEAR     25  16  68 N3        30.33S
SHOW LOW       CLEAR     32  18  55 E6        30.35S WCI  26
$$

AZZ540-542>544-546-548-180500-
GREATER PHOENIX AREA

CITY           SKY/WX    TMP DP  RH WIND       PRES   REMARKS
PHOENIX        PTCLDY    62  28  27 CALM      30.16R
BUCKEYE        CLEAR     54  32  43 NE7       30.18R
LUKE AFB       CLEAR     53  38  56 NW3       30.16R
DEER VALLEY    CLEAR     57  30  35 NE6       30.17S
SCOTTSDALE     CLEAR     58  32  37 NE5       30.19R
MESA-GATEWAY   PTCLDY    57  27  30 SE3       30.19S
CHANDLER       CLEAR     57  30  35 CALM      30.18R
$$

AZZ539-553-180500-
SOUTHWEST MARICOPA COUNTY AND PINAL COUNTY

CITY           SKY/WX    TMP DP  RH WIND       PRES   REMARKS
CASA GRANDE    NOT AVBL
GILA BEND      FAIR      58  26  28 CALM      30.16R
$$

AZZ503-504-507>509-180500-
SOUTHEAST ARIZONA

CITY           SKY/WX    TMP DP  RH WIND       PRES   REMARKS
TUCSON         CLEAR     57  19  22 E7        30.21R
DAVIS-MONTHAN  CLEAR     50  18  28 SE9       30.19R
NOGALES        CLEAR     51  19  28 NE10      30.20R
SIERRA VISTA   CLEAR     41  17  37 W5        30.25S
DOUGLAS        CLEAR     34  17  50 N7        30.25R WCI  28
SAFFORD        CLEAR     39  16  39 SE6       30.28R WCI  35
$$

AZZ532-180500-
SOUTHWEST ARIZONA

CITY           SKY/WX    TMP DP  RH WIND       PRES   REMARKS
YUMA           CLEAR     64  36  35 CALM      30.14S
$$

CAZ041-043-047-048-061-525>527-560>570-180500-
SOUTHERN CALIFORNIA

CITY           SKY/WX    TMP DP  RH WIND       PRES   REMARKS
DOWNTOWN L.A.  CLEAR     62  51  67 CALM      30.09S
L.A. AIRPORT   CLEAR     62  57  83 W5        30.10S
SAN DIEGO      PTCLDY    63  51  65 CALM      30.12S
BURBANK        CLEAR     65  49  56 CALM      30.10S
ONTARIO        PTCLDY    65  43  44 CALM      30.12S
RIVERSIDE      CLEAR     66  37  34 SE3       30.12F
PALM SPRINGS   PTCLDY    63  46  54 NW5       30.18S
EL CENTRO NAS  PTCLDY    60  34  37 SW5       30.16R
IMPERIAL       CLEAR     61  38  42 CALM      30.13S
BLYTHE         PTCLDY    61  37  41 NW3       30.16R
NEEDLES        PTCLDY    61  36  39 W8        30.18F
$$

NVZ020-UTZ003-180500-
SOUTHERN NEVADA-UTAH

CITY           SKY/WX    TMP DP  RH WIND       PRES   REMARKS
LAS VEGAS      MOCLDY    56  39  53 SW3       30.23F
SALT LAKE CITY MOCLDY    39  31  72 SE7       30.33F WCI  34
$$

NMZ009-TXZ055-180500-
NEW MEXICO-WEST TEXAS

CITY           SKY/WX    TMP DP  RH WIND       PRES   REMARKS
ALBUQUERQUE    CLEAR     33  14  45 CALM      30.33R
EL PASO        MOCLDY    40  17  39 N5        30.32S
$$


........................KEY........................
SKY/WX - SKY CONDITION/WEATHER
TMP    - TEMPERATURE IN FAHRENHEIT
DP     - DEW POINT IN FAHRENHEIT
RH     - RELATIVE HUMIDITY IN PERCENT
WIND   - DIRECTION AND SPEED IN MILES PER HOUR (MPH)
VRB    - VARIABLE WIND DIRECTION
PRES   - MEAN SEA LEVEL PRESSURE IN INCHES OF MERCURY
         F - FALLING PRESSURE   R - RISING PRESSURE
         S - STEADY PRESSURE
VSB    - VISIBILITY IN MILES
HX     - HEAT INDEX IN FAHRENHEIT
WCI    - WIND CHILL INDEX IN FAHRENHEIT
TC     - TEMPERATURE IN CELSIUS WHICH IS ALSO KNOWN AS
         TEMPERATURE IN CENTIGRADE
AFB    - AIR FORCE BASE
         LUKE AFB IS LUKE AIR FORCE BASE
         DAVIS-MONTHAN IS DAVIS-MONTHAN AIR FORCE BASE
NAS    - NAVAL AIR STATION
         EL CENTRO NAS IS EL CENTRO NAVAL AIR STATION
N/A    - NOT AVAILABLE





USA.gov is the U.S. government's official web portal to all federal, state and local government web resources and services.